Terminal Aerodrome Forecast
Issued by NWS Houston/Galveston TX

Home | Current Version | Previous Version | Text Only | Print | Product List | Glossary On
Versions: 1 2 3 4 5 6 7 8 9 10 11 12 13 14 15 16 17 18 19 20 21 22 23 24 25 26 27 28 29 30 31 32 33 34 35 36 37 38 39 40 41 42 43 44 45 46 47 48 49 50
660
FTUS44 KHGX 280305 AAA
TAFHOU
TAF AMD
KHOU 280305Z 2803/2824 10004KT P6SM FEW025 SCT035 BKN090
     FM280700 07006KT P6SM VCSH SCT020 BKN250
     FM281100 08006KT P6SM VCSH BKN020
     FM281700 09010KT P6SM VCTS SCT035 BKN045CB PROB30 2817/2820 6SM
      -TSRA BKN025CB=

USA.gov is the U.S. government's official web portal to all federal, state and local government web resources and services.